DW4139 Weather Reports


time (UTC)temp
F
wind
direction
speed
knots
gust
knots
rain 1hr
in
rain 24hr
in
rain mn
in
humidity
%
barometer
mb
20260510093404 49 90 5.2 5.2 0.00 0.16 0.02 74 1013.7
20260510092904 49 45 8.7 10.4 0.00 0.16 0.02 74 1013.4
20260510092404 49 68 0.0 5.2 0.00 0.16 0.02 76 1013.2
20260510091404 49 45 1.7 4.3 0.00 0.16 0.02 77 1013.0
20260510090404 50 45 0.9 2.6 0.00 0.16 0.02 78 1012.8
20260510085404 50 27 6.1 7.0 0.00 0.16 0.02 79 1012.7
20260510084403 50 22 0.0 0.0 0.00 0.16 0.02 79 1012.5
20260510083905 50 36 0.0 2.6 0.00 0.16 0.02 80 1012.4
20260510083404 50 22 2.6 5.2 0.00 0.16 0.02 80 1012.4
20260510082903 50 45 1.7 5.2 0.00 0.16 0.02 80 1012.4
20260510082403 50 39 0.0 7.0 0.00 0.16 0.02 79 1012.4
20260510081904 50 45 6.1 7.0 0.00 0.16 0.02 79 1012.0
20260510081404 50 89 0.9 2.6 0.00 0.16 0.02 79 1012.0
20260510080904 50 22 0.0 5.2 0.00 0.16 0.02 79 1012.0
20260510080404 50 45 5.2 5.2 0.00 0.16 0.02 79 1012.0
20260510075903 50 68 4.3 6.1 0.00 0.16 0.02 78 1011.9
20260510075404 50 45 0.9 5.2 0.00 0.16 0.02 78 1011.7
20260510074904 50 22 0.0 0.0 0.00 0.16 0.02 78 1011.6
20260510074403 50 22 0.0 0.0 0.00 0.16 0.02 78 1011.7
20260510073904 50 45 0.9 0.9 0.00 0.16 0.02 78 1011.7
20260510073404 50 22 0.0 0.0 0.00 0.16 0.02 79 1011.3
20260510072903 50 63 3.5 4.3 0.00 0.16 0.02 79 1011.3
20260510071903 50 45 0.0 0.0 0.00 0.16 0.02 79 1011.3
20260510071403 50 68 0.0 0.0 0.00 0.16 0.02 79 1011.3
20260510070904 51 101 0.0 0.0 0.00 0.16 0.02 79 1011.3
20260510070403 51 112 0.0 0.0 0.00 0.16 0.02 79 1011.3
20260510065904 51 45 0.0 0.0 0.00 0.16 0.02 79 1011.0
20260510064903 51 45 0.0 0.0 0.00 0.16 0.02 79 1011.0
20260510064404 51 45 0.0 0.0 0.00 0.16 0.02 79 1011.0
20260510063903 51 45 0.0 0.0 0.00 0.16 0.02 79 1010.8
20260510063404 51 68 0.0 0.0 0.00 0.16 0.02 79 1010.8
20260510062904 51 69 0.0 0.0 0.00 0.16 0.02 79 1010.7
20260510062404 51 63 0.0 0.0 0.00 0.16 0.02 79 1010.9
20260510061904 51 45 0.0 0.0 0.00 0.16 0.02 79 1010.7
20260510060904 51 45 0.0 0.0 0.00 0.16 0.02 80 1010.7
20260510060404 52 45 0.0 0.0 0.00 0.16 0.02 80 1010.7
20260510055904 52 68 0.0 0.0 0.00 0.16 0.02 80 1010.7
20260510055403 52 52 0.0 0.0 0.00 0.16 0.02 80 1010.7
20260510054904 52 22 2.6 5.2 0.02 0.16 0.02 80 1010.7
20260510054404 52 68 0.0 4.3 0.02 0.16 0.02 81 1011.0
20260510053904 52 45 0.0 4.3 0.02 0.16 0.02 82 1011.0
20260510053403 52 45 0.0 0.0 0.02 0.16 0.02 82 1011.3
20260510052904 52 45 0.0 0.0 0.02 0.16 0.02 82 1011.2
20260510052403 53 68 0.0 6.1 0.02 0.16 0.02 82 1011.0
20260510051904 53 22 3.5 6.1 0.02 0.16 0.02 82 1010.7
20260510051403 53 68 0.0 0.0 0.02 0.16 0.02 82 1010.5
20260510050404 53 22 4.3 7.8 0.02 0.16 0.02 82 1009.6
20260510045904 54 68 1.7 7.8 0.02 0.16 0.02 81 1009.6
20260510045403 55 29 12.2 13.9 0.02 0.16 0.02 81 1009.6
20260510044903 56 22 5.2 8.7 0.00 0.14 0.00 81 1009.4
20260510044404 57 21 0.0 6.1 0.00 0.14 0.00 81 1009.6
20260510043904 57 0 0.0 6.1 0.00 0.14 0.00 81 1010.0
20260510043404 57 315 0.0 0.0 0.00 0.14 0.00 82 1010.1
20260510042904 57 292 0.0 0.0 0.00 0.14 0.00 82 1009.0
20260510041904 57 202 0.0 0.0 0.00 0.14 0.00 83 1009.0
20260510041404 57 200 0.0 0.0 0.00 0.14 0.00 83 1008.9
20260510040903 57 198 0.0 0.0 0.00 0.14 0.00 84 1008.6
20260510040404 56 202 0.0 0.0 0.00 0.14 0.00 84 1008.6
20260510035904 56 206 0.0 0.0 0.00 0.14 0.14 84 1008.6
20260510035403 56 232 0.0 0.0 0.00 0.14 0.14 84 1008.6
20260510034904 56 202 0.0 0.0 0.00 0.14 0.14 84 1008.3
20260510034404 56 199 0.0 0.0 0.00 0.14 0.14 84 1008.1
20260510033904 56 180 0.0 0.0 0.00 0.14 0.14 84 1008.0
20260510033404 56 202 0.0 0.0 0.00 0.14 0.14 83 1008.0
20260510032903 56 201 0.0 0.0 0.00 0.14 0.14 84 1008.0
20260510032404 56 202 0.0 0.9 0.00 0.14 0.14 84 1007.8
20260510031903 56 225 0.9 0.9 0.00 0.14 0.14 85 1008.0
20260510031404 56 225 1.7 4.3 0.00 0.14 0.14 85 1008.0
20260510025404 55 180 0.0 0.0 0.00 0.14 0.14 84 1007.6
20260510024903 56 180 0.0 0.0 0.00 0.14 0.14 84 1007.6
20260510024404 56 182 0.0 0.0 0.00 0.14 0.14 84 1007.6
20260510023403 56 180 0.0 0.0 0.00 0.14 0.14 84 1007.6
20260510022403 56 180 0.0 0.0 0.00 0.14 0.14 83 1007.6
20260510021905 56 180 0.0 0.0 0.00 0.14 0.14 83 1007.6
20260510021404 56 202 0.0 0.0 0.00 0.14 0.14 83 1007.6
20260510020905 56 187 0.0 0.9 0.00 0.14 0.14 84 1007.6
20260510020405 56 225 0.0 0.0 0.00 0.14 0.14 84 1007.6
20260510015905 56 203 0.0 0.0 0.00 0.14 0.14 84 1007.6
20260510014405 56 225 0.0 0.0 0.00 0.14 0.14 84 1007.3
20260510013904 56 217 0.0 0.0 0.00 0.14 0.14 84 1007.3
20260510013405 56 180 0.0 0.0 0.00 0.14 0.14 84 1007.3
20260510012405 56 270 0.9 5.2 0.00 0.14 0.14 84 1006.9
20260510011905 56 225 0.0 0.0 0.00 0.14 0.14 84 1006.9
20260510011404 56 248 0.0 0.0 0.00 0.14 0.14 84 1006.9
20260510010905 56 248 0.0 4.3 0.00 0.14 0.14 85 1006.6
20260510010405 56 248 1.7 4.3 0.00 0.14 0.14 85 1006.9
20260510005405 56 248 5.2 6.1 0.00 0.14 0.14 85 1006.9
20260510004905 56 270 0.0 0.0 0.00 0.14 0.14 86 1006.9
20260510004405 56 202 5.2 7.0 0.00 0.14 0.14 86 1006.9
20260510002905 56 202 0.9 0.9 0.00 0.14 0.14 87 1006.9
20260510002405 57 202 0.0 0.9 0.00 0.14 0.14 87 1007.0
20260510001905 57 202 0.0 0.9 0.00 0.14 0.14 87 1006.9
20260510001405 57 185 0.0 0.0 0.00 0.14 0.14 87 1006.9
20260510000905 57 186 5.2 6.1 0.00 0.14 0.14 87 1006.9
20260510000405 56 225 0.0 0.0 0.00 0.14 0.14 87 1006.9
20260509235904 56 182 0.0 0.0 0.00 0.14 0.14 87 1006.9
20260509235404 56 180 0.0 0.0 0.02 0.14 0.14 87 1006.9
20260509234905 56 248 0.0 0.0 0.04 0.14 0.14 87 1006.9
20260509234404 56 248 0.0 0.0 0.04 0.14 0.14 86 1006.6
20260509233905 56 225 0.0 0.0 0.06 0.14 0.14 86 1006.6
20260509233405 56 202 0.0 0.0 0.12 0.14 0.14 86 1006.6
20260509232905 56 247 0.0 4.3 0.14 0.14 0.14 87 1006.6
20260509232405 56 192 4.3 5.2 0.14 0.14 0.14 87 1006.6
20260509231404 55 212 2.6 2.6 0.14 0.14 0.14 86 1006.6
20260509230905 55 230 0.0 2.6 0.14 0.14 0.14 86 1006.8
20260509230404 55 225 1.7 2.6 0.14 0.14 0.14 86 1007.3
20260509224905 55 270 0.9 10.4 0.10 0.10 0.10 85 1007.6
20260509223905 57 329 5.2 19.1 0.08 0.08 0.08 81 1007.6
20260509223404 60 0 11.3 15.6 0.02 0.02 0.02 75 1007.6
20260509220905 69 313 1.7 5.2 0.00 0.00 0.00 52 1004.2
20260509220405 70 270 5.2 7.0 0.00 0.00 0.00 52 1004.2
20260509215905 70 251 4.3 6.1 0.00 0.00 0.00 52 1003.9
20260509215404 70 248 8.7 8.7 0.00 0.00 0.00 51 1003.9
20260509214905 70 225 2.6 6.1 0.00 0.00 0.00 51 1003.9
20260509214405 71 221 11.3 13.0 0.00 0.00 0.00 51 1003.8
20260509213905 71 206 8.7 11.3 0.00 0.00 0.00 50 1003.6
20260509213405 71 202 11.3 11.3 0.00 0.00 0.00 50 1003.6
20260509212905 71 217 7.8 7.8 0.00 0.00 0.00 50 1003.6
20260509211905 72 180 7.0 7.0 0.00 0.00 0.00 49 1003.6
20260509211404 73 202 7.8 7.8 0.00 0.00 0.00 48 1003.8
20260509210905 73 225 3.5 6.1 0.00 0.00 0.00 48 1003.9
20260509210405 73 225 6.1 6.1 0.00 0.00 0.00 49 1003.9
20260509205904 73 225 5.2 12.2 0.00 0.00 0.00 49 1003.9
20260509204904 72 225 7.0 7.8 0.00 0.00 0.00 49 1004.2
20260509204405 73 235 0.0 2.6 0.00 0.00 0.00 49 1004.4
20260509203905 73 181 6.1 7.0 0.00 0.00 0.00 49 1004.6
20260509203405 73 202 6.1 6.1 0.00 0.00 0.00 49 1004.6
20260509202905 73 184 0.9 5.2 0.00 0.00 0.00 50 1004.6
20260509202404 73 247 5.2 5.2 0.00 0.00 0.00 49 1004.6
20260509201405 73 202 11.3 12.2 0.00 0.00 0.00 49 1004.7
20260509200405 73 202 5.2 11.3 0.00 0.00 0.00 50 1004.9
20260509195904 73 284 0.9 5.2 0.00 0.00 0.00 49 1005.2
20260509195405 74 268 1.7 12.2 0.00 0.00 0.00 46 1005.2
20260509194904 74 180 5.2 12.2 0.00 0.00 0.00 49 1005.2
20260509194404 74 196 9.6 10.4 0.00 0.00 0.00 49 1005.2
20260509193905 73 222 0.9 5.2 0.00 0.00 0.00 48 1005.2
20260509193405 73 248 0.9 2.6 0.00 0.00 0.00 49 1005.2
20260509192904 73 225 4.3 13.0 0.00 0.00 0.00 49 1005.6
20260509192405 73 284 1.7 13.0 0.00 0.00 0.00 50 1005.6
20260509191904 72 202 5.2 7.8 0.00 0.00 0.00 51 1005.6
20260509191405 72 216 4.3 5.2 0.00 0.00 0.00 49 1005.9
20260509190904 73 225 2.6 7.0 0.00 0.00 0.00 49 1005.9
20260509190405 73 225 7.8 7.8 0.00 0.00 0.00 49 1005.9
20260509185404 73 203 6.1 10.4 0.00 0.00 0.00 49 1005.9
20260509184905 73 225 1.7 2.6 0.00 0.00 0.00 50 1005.9
20260509184405 73 260 0.0 7.0 0.00 0.00 0.00 49 1006.3
20260509183905 73 225 7.0 7.8 0.00 0.00 0.00 49 1005.9
20260509183404 74 202 1.7 6.1 0.00 0.00 0.00 50 1006.3
20260509182904 73 248 0.9 6.1 0.00 0.00 0.00 51 1006.3
20260509182405 73 249 6.1 7.0 0.00 0.00 0.00 53 1006.0
20260509181904 73 180 7.8 8.7 0.00 0.00 0.00 54 1005.9
20260509181405 72 225 1.7 1.7 0.00 0.00 0.00 55 1005.9
20260509180906 71 270 1.7 5.2 0.00 0.00 0.00 58 1005.9
20260509180406 71 248 3.5 5.2 0.00 0.00 0.00 59 1005.9
20260509175904 71 265 0.0 6.1 0.00 0.00 0.00 58 1005.9
20260509175405 71 292 0.9 0.9 0.00 0.00 0.00 57 1005.9
20260509174905 71 248 0.9 0.9 0.00 0.00 0.00 60 1006.3
20260509174405 70 263 0.0 0.0 0.00 0.00 0.00 60 1006.0
20260509173905 69 180 0.0 0.9 0.00 0.00 0.00 62 1006.3
20260509173405 69 315 0.9 0.9 0.00 0.00 0.00 62 1006.3
20260509172905 68 233 0.0 5.2 0.00 0.00 0.00 65 1006.3
20260509172405 68 292 3.5 5.2 0.00 0.00 0.00 63 1005.9
20260509171404 68 303 0.9 5.2 0.00 0.00 0.00 64 1006.3
20260509170905 67 270 0.0 0.0 0.00 0.00 0.00 67 1006.3
20260509170404 67 292 0.9 0.9 0.00 0.00 0.00 67 1006.3
20260509165904 66 255 0.9 5.2 0.00 0.00 0.00 67 1006.6
20260509164905 66 292 4.3 7.0 0.00 0.00 0.00 67 1006.6
20260509164405 66 308 0.9 7.0 0.00 0.00 0.00 66 1006.9
20260509163905 67 248 3.5 10.4 0.00 0.00 0.00 64 1006.9
20260509163404 68 292 11.3 12.2 0.00 0.00 0.00 65 1006.9
20260509162904 67 248 0.0 4.3 0.00 0.00 0.00 68 1006.6
20260509162404 66 248 2.6 4.3 0.00 0.00 0.00 68 1006.6
20260509161905 65 270 0.9 6.1 0.00 0.00 0.00 68 1006.9
20260509160905 65 248 1.7 1.7 0.00 0.00 0.00 70 1007.3
20260509160404 65 338 2.6 6.1 0.00 0.00 0.00 71 1007.3
20260509155904 65 292 4.3 6.1 0.00 0.00 0.00 71 1007.3
20260509155405 65 270 1.7 2.6 0.00 0.00 0.00 70 1007.6
20260509154905 65 270 0.9 0.9 0.00 0.00 0.00 71 1007.6
20260509153905 64 270 0.9 5.2 0.00 0.00 0.00 72 1007.6
20260509153404 64 315 5.2 5.2 0.00 0.00 0.00 71 1007.6
20260509152905 64 292 6.1 6.1 0.00 0.00 0.00 72 1007.6
20260509152404 63 315 2.6 2.6 0.00 0.00 0.00 73 1007.9
20260509151905 63 248 0.9 8.7 0.00 0.00 0.00 74 1007.6
20260509151404 63 279 0.9 8.7 0.00 0.00 0.00 75 1007.6
20260509150904 62 270 0.9 6.1 0.00 0.00 0.00 74 1007.6
20260509150405 63 225 4.3 6.1 0.00 0.00 0.00 74 1007.6
20260509145905 62 292 0.0 0.0 0.00 0.00 0.00 75 1007.6
20260509145404 62 248 0.0 0.0 0.00 0.00 0.00 74 1007.6
20260509144405 63 302 7.0 12.2 0.00 0.00 0.00 72 1007.3
20260509143905 63 248 0.9 4.3 0.00 0.00 0.00 74 1007.3
20260509142904 62 235 0.9 7.0 0.00 0.00 0.00 75 1007.6
20260509142405 62 270 0.0 0.0 0.00 0.00 0.00 76 1007.6
20260509141904 62 202 0.9 1.7 0.00 0.00 0.00 77 1007.6
20260509141405 61 252 0.0 1.7 0.00 0.00 0.00 78 1007.6
20260509140904 61 270 0.0 0.0 0.00 0.00 0.00 79 1007.6
20260509140405 60 248 2.6 2.6 0.00 0.00 0.00 80 1007.4
20260509135905 60 248 0.0 0.0 0.00 0.00 0.00 80 1007.6
20260509135404 59 292 0.0 0.0 0.00 0.00 0.00 81 1007.6
20260509134405 60 270 0.0 0.0 0.00 0.00 0.00 81 1007.6
20260509133405 59 248 0.0 0.0 0.00 0.00 0.00 83 1007.6
20260509132905 59 236 1.7 1.7 0.00 0.00 0.00 83 1007.6
20260509132405 58 202 0.0 0.0 0.00 0.00 0.00 84 1007.6
20260509131904 58 248 0.0 0.0 0.00 0.00 0.00 84 1007.6
20260509131405 58 191 0.0 0.0 0.00 0.00 0.00 84 1007.6
20260509130905 58 202 0.0 0.0 0.00 0.00 0.00 84 1007.6
20260509130404 58 202 0.0 0.0 0.00 0.00 0.00 84 1007.6
20260509125905 58 225 0.0 0.0 0.00 0.00 0.00 84 1007.6
20260509125405 58 180 0.0 0.0 0.00 0.00 0.00 84 1007.6
20260509124905 58 225 0.0 0.0 0.00 0.00 0.00 85 1007.6
20260509124404 58 222 0.0 0.0 0.00 0.00 0.00 85 1007.6
20260509123405 57 180 0.0 0.0 0.00 0.00 0.00 86 1007.6
20260509122904 57 180 0.0 0.0 0.00 0.00 0.00 86 1007.6
20260509122405 56 202 0.0 0.0 0.00 0.00 0.00 87 1007.6
20260509121905 56 180 0.0 0.0 0.00 0.00 0.00 87 1007.6
20260509121405 56 218 0.0 0.0 0.00 0.00 0.00 87 1008.0
20260509120905 56 202 0.0 0.0 0.00 0.00 0.00 88 1008.0
20260509120405 56 200 0.0 0.0 0.00 0.00 0.00 88 1008.0
20260509115905 55 180 4.3 4.3 0.00 0.00 0.00 88 1008.0
20260509115404 55 180 0.0 0.0 0.00 0.00 0.00 88 1008.0
20260509114904 55 180 0.0 0.0 0.00 0.00 0.00 88 1008.0
20260509114404 55 170 0.0 0.0 0.00 0.00 0.00 88 1008.0
20260509113905 55 180 0.0 0.0 0.00 0.00 0.00 88 1008.0
20260509113405 55 202 0.0 0.0 0.00 0.00 0.00 88 1008.0
20260509112905 54 201 0.0 0.0 0.00 0.00 0.00 88 1007.7
20260509112404 54 180 0.0 0.0 0.00 0.00 0.00 88 1007.6
20260509111905 54 180 0.0 0.0 0.00 0.00 0.00 88 1007.7
20260509111405 54 190 0.0 0.0 0.00 0.00 0.00 88 1007.6
20260509110905 54 180 0.0 0.0 0.00 0.00 0.00 88 1007.6
20260509110405 54 180 0.0 0.0 0.00 0.00 0.00 88 1007.6
20260509105405 54 202 0.0 0.0 0.00 0.00 0.00 88 1007.6
20260509104904 54 202 5.2 7.0 0.00 0.00 0.00 88 1007.6
20260509104404 54 180 0.0 0.0 0.00 0.00 0.00 89 1007.6
20260509103905 53 202 0.0 0.0 0.00 0.00 0.00 89 1008.0
20260509103404 53 180 0.0 0.0 0.00 0.00 0.00 89 1007.6
20260509102905 53 180 0.0 0.0 0.00 0.00 0.00 89 1007.9
20260509102404 53 180 0.0 0.0 0.00 0.00 0.00 89 1007.6
20260509101405 53 180 0.0 0.0 0.00 0.00 0.00 88 1007.6
20260509100905 53 180 0.0 0.0 0.00 0.00 0.00 88 1007.6
20260509100404 53 180 0.0 0.0 0.00 0.00 0.00 88 1008.0
20260509095905 53 180 0.0 0.0 0.00 0.00 0.00 88 1008.0
20260509095405 53 180 0.0 0.0 0.00 0.00 0.00 88 1007.6
20260509094404 53 202 0.0 0.0 0.00 0.00 0.00 88 1008.0